Погода в Мотыгино

Россия / Красноярский край     58°10′53″N   94°42′17″E
темп.,
°C
ветер,
м/с
пор.,
м/с
влажн.,
%
обл.,
%
осадки,
мм/ч
давл.,
гПа
погр.,
м
8 марта, пн
пн801:00−10зюз41293100 0.3 1016770
04:00−11зюз31095100 0.1 1019614
07:00−12юз3897100 0.2 1022266
10:00−11юз2496100 0.1 1022289
13:00−7ю3590100 0.1 1020605
16:00−5ююв4885100 0.0 1015679
19:00−7ююв31387100 0.0 1012587
22:00−5ююв51292100 0.3 1007536
9 марта, вт
вт901:00−4ю41492100 0.4 1003670
04:00−2зюз81595100 1.2 10021471
07:00−5з71488100 1.8 10071270
10:00−10з6128866 0.0 1013908
13:00−8зюз6108683 0.1 10161147
16:00−8зюз61183100 0.2 10171446
19:00−10зюз41194100 0.4 1020725
22:00−10зюз41192100 0.2 1021766
10 марта, ср
ср1001:00−12юз31096100 0.4 1021507
04:00−13ююз269897 0.1 1020189
07:00−13ю289798 0.3 1019277
10:00−10ю41089100 0.3 1016551
13:00−6юз6108076 0.3 10131069
16:00−5зюз6118273 0.1 10131331
19:00−8зюз389386 0.3 1016286
22:00−13з119783 0.0 101821
11 марта, чт
чт1101:00−12в119791 0.0 101721
04:00−11всв2296100 0.0 101468
07:00−11всв3895100 0.0 1010218
10:00−4юв3991100 0.1 1005623
13:000ююз61399100 1.9 1002940
16:00+1юз61698100 0.5 10011351
19:00−1зюз61482100 0.8 10041250
22:00−6зюз61388100 0.1 10091020
12 марта, пт
пт1201:00−7зюз51291100 0.1 1013918
04:00−8зюз51393100 0.1 1015829
07:00−9юз41194100 0.3 1017627
10:00−8юз4792100 0.1 1016604
13:00−5ю4983100 0.1 10121060
16:00−2юз61482100 1.9 10081865
19:00−7зюз5147994 2.9 10081141
22:00−9зюз6139343 0.1 10111178